Simultaneous Nadir Overpasses (SNOs) Predictions

Prediction of SNOs between GOES-16 and METOP-C Satellite Orbit:

Table of predicted SNOs for the next 14.0 days since TLE Epoch: 1/30/2021
Index Date Time (GOES-16) GOES-16 Lat,Lon METOP-C Lat,Lon Distance(km) Time Diff (sec)
1 01/31/2021 14:33:15 0.00, -75.24 0.12, -75.64 47.07 80
2 02/03/2021 02:34:17 -0.00, -75.22 0.02, -75.26 4.54 80
3 02/05/2021 14:32:29 0.01, -75.28 -0.10, -74.82 52.79 80
4 02/07/2021 02:51:31 -0.01, -75.27 -0.91, -79.42 472.63 80
5 02/08/2021 02:28:11 -0.01, -75.28 0.19, -74.42 97.70 80
6 02/09/2021 14:47:02 0.01, -75.33 0.83, -78.98 416.02 80
7 02/10/2021 14:29:03 0.01, -75.35 -0.27, -73.98 154.92 80
8 02/12/2021 02:48:04 -0.01, -75.34 -0.72, -78.58 368.92 80
9 02/13/2021 02:24:45 -0.01, -75.36 0.38, -73.59 202.37 80
